[[{"header":{"parameterUnit":"m.s-1","parameterCategory":1,"la1":30.2991,"la2":30.254,"lo1":-89.0895,"lo2":-89.0444,"dy":0.0017,"dx":0.0017,"nx":28,"ny":28,"refTime":"2025-07-02T21:00:00:Z","depth":0,"parameterNumber":2,"parameterNumberName":"U-component_of_WINDS"},"data":[0,0,0,0,0,0,0,0,0,0,0,0,0,0,0,0,0,0,0,0,0,0,0,0,0,0,0,0,0,0,0,0,0,0,0,0,0,0,0,0,0,0,0,0,0,0,0,0,0,0,0,0,0,0,0,0,0,0,2.8511,2.8511,0,2.8548,2.8549,2.8549,2.8423,2.8419,2.8415,2.8412,2.8449,2.8454,2.8458,0,0,0,0,0,0,0,0,0,0,0,0,0,2.8333,2.8337,2.8511,2.8511,2.8512,2.8548,2.8549,2.8549,2.8424,2.8419,2.8414,2.841,2.8448,2.8453,2.8459,0,0,0,0,0,0,0,0,0,0,0,0,0,2.8395,2.8338,2.8511,2.8454,2.8449,2.8548,2.8549,2.855,2.8425,2.8419,2.8413,2.8408,2.8446,2.8453,2.8459,2.8615,0,0,2.848,2.8483,0,0,0,0,0,0,0,0,2.8391,2.8401,2.8462,2.8458,2.8453,2.8475,2.85,2.8572,2.8426,2.8434,2.8412,2.8405,2.8462,2.8468,2.8487,2.8617,2.8619,2.8481,2.8485,2.8488,2.849,0,0,0,0,0,0,0,2.8387,2.8399,2.8526,2.8463,2.8457,2.8427,2.8429,2.8513,2.848,2.8433,2.8424,2.843,2.8459,2.8481,2.8487,2.8619,2.848,2.8486,2.8491,2.8493,2.8885,2.8891,0,0,0,0,0,0,2.839,2.8396,2.8524,2.8527,2.8407,2.8435,2.8437,2.8474,2.8478,2.8474,2.8435,2.8424,2.8472,2.8479,2.8488,2.8675,2.8488,2.8494,2.8498,2.8879,2.8887,2.8894,0,0,0,0,0,0,2.8387,2.8403,2.8523,2.8459,2.8472,2.8444,2.8486,2.8477,2.8499,2.848,2.8473,2.8463,2.8468,2.8478,2.8586,2.8674,2.8497,2.8503,2.8872,2.8882,2.889,2.9047,0,0,0,0,0,0,2.8382,2.8402,2.846,2.8461,2.8476,2.862,2.8491,2.8482,2.8511,2.8498,2.8505,2.85,2.8464,2.8577,2.8593,2.868,2.8509,2.8864,2.8876,2.8887,2.9034,2.9061,2.9084,0,0,0,0,0,2.8376,2.8502,2.8464,2.848,2.8548,2.8625,2.8634,2.8589,2.8519,2.8578,2.8567,2.85,2.8662,2.8589,2.8606,2.8697,2.8858,2.8873,2.8886,2.9023,2.9056,2.9084,0,0,0,0,0,0,2.8509,2.85,2.8458,2.8587,2.8609,2.8604,2.8676,2.8625,2.8665,2.8651,2.8594,2.8597,2.8716,2.8716,2.8635,2.8851,2.8748,2.8766,2.8846,2.8877,2.8901,2.8899,2.8514,0,0,0,0,0,2.8554,2.8618,2.8606,2.8721,2.8734,2.8705,2.8736,2.8701,2.872,2.8728,2.8724,2.8745,2.8801,2.8839,2.8889,2.9034,2.9036,2.9106,2.9131,2.9151,2.9168,2.925,2.9282,2.8941,2.894,2.894,0,0,2.8646,2.8649,2.8692,2.8748,2.876,2.8829,2.8712,2.8788,2.8839,2.8739,2.8842,2.8841,2.8861,2.899,2.9046,2.8994,2.9263,2.9169,2.9186,2.9191,2.9268,2.93,2.9329,2.895,2.8948,2.8947,0,0,2.8849,2.8857,2.8956,2.8972,2.8993,2.8973,2.8998,2.9002,2.8998,2.9101,2.9029,2.9089,2.9185,2.9204,2.9226,2.9445,2.9387,2.9463,2.9593,2.9673,2.97,2.9724,2.9805,2.9834,2.9479,2.948,2.948,0,2.8961,2.9061,2.9013,2.9096,2.9125,2.904,2.9142,2.9159,2.9195,2.9218,2.9159,2.9283,2.9289,2.9424,2.9478,2.9498,2.9526,2.9461,2.97,2.9723,2.9745,2.9822,2.9852,2.9489,2.9488,2.9487,2.9486,0,2.9199,2.9271,2.9348,2.9388,2.9425,2.9517,2.9485,2.9529,2.9492,2.948,2.9588,2.9595,2.9647,2.9676,2.9639,2.9808,2.9775,2.971,2.9605,2.9788,2.9859,2.9887,2.9502,2.9499,2.9496,2.9494,0,0,2.9484,2.9501,2.953,2.955,2.9569,2.9624,2.9714,2.9767,2.9807,2.9836,2.9912,2.9999,2.994,2.9966,2.9931,3.0002,3.0179,2.9928,2.9928,2.9977,3.0369,3.042,3.0454,3.0141,3.0147,3.0151,3.0369,0,2.9686,2.9841,2.9803,2.9957,3.0024,2.9948,3.0027,3.0049,3.0041,3.0098,3.0089,3.0153,3.0068,3.0084,3.0151,3.0144,3.0258,3.0127,3.0213,3.0217,3.0212,3.0491,3.0543,3.0748,3.0396,3.04,3.0404,0,2.9941,2.9984,3.0146,3.016,3.0187,3.0258,3.0307,3.0361,3.0386,3.0376,3.0409,3.0362,3.0453,3.0349,3.0476,3.0389,3.0422,3.0425,3.0432,3.0438,3.0322,3.0507,3.0811,3.0843,3.0447,3.0443,3.044,0,3.0137,3.0234,3.0345,3.0363,3.0382,3.0435,3.0445,3.0464,3.0501,3.0543,3.0567,3.0619,3.0648,3.0691,3.0661,3.0587,3.0795,3.0687,3.0791,3.0792,3.0837,3.0835,3.1153,3.0857,3.0857,3.0856,3.0856,0,3.0368,3.047,3.0434,3.0501,3.0616,3.0573,3.0687,3.0688,3.0708,3.0776,3.0713,3.0779,3.0735,3.0798,3.0775,3.0886,3.0899,3.0895,3.0888,3.0901,3.0902,3.0922,3.0908,3.0864,3.0863,3.0861,3.086,0,3.0604,3.0583,3.0699,3.071,3.0715,3.0799,3.0807,3.0872,3.0861,3.0949,3.0968,3.0951,3.1022,3.0997,3.1072,3.1058,3.12,3.1174,3.1193,3.1186,3.1293,3.1284,3.1636,3.1682,3.1355,3.1358,3.1361,0,3.0753,3.083,3.0851,3.0893,3.0909,3.0976,3.1014,3.0977,3.102,3.1058,3.1119,3.1185,3.1236,3.1354,3.135,3.1408,3.1384,3.1504,3.1392,3.1405,3.1389,3.1385,3.1395,3.1526,3.153,3.1533,3.1535,0,3.102,3.1008,3.1065,3.1122,3.117,3.1211,3.1247,3.1286,3.1251,3.1302,3.1376,3.1416,3.1496,3.1564,3.1618,3.1629,3.1579,3.1571,3.1598,3.1613,3.1622,3.1622,3.1255,3.1562,3.156,3.1558,3.1556,3.1555,3.1219,3.1287,3.1313,3.1381,3.1405,3.1442,3.1505,3.1504,3.1565,3.1628,3.1602,3.1688,3.1716,3.1784,3.1804,3.1872,3.1825,3.1864,3.1875,3.1885,3.1901,3.1611,3.1881,3.188,3.1879,3.1879,3.1878,0,3.1485,3.15,3.1563,3.1618,3.1673,3.1621,3.166,3.1709,3.1786,3.1817,3.187,3.1958,3.2025,3.2028,3.2091,3.2145,3.2123,3.2163,3.2159,3.2163,3.1937,3.1908,3.218,3.218,3.2179,3.2179,3.2179,3.2179,3.1631,3.1744,3.1736,3.1862,3.1875,3.196,3.1988,3.2023,3.2048,3.2149,3.2205,3.2207,3.2228,3.2293,3.2354,3.2353,3.238,3.2429,3.242,3.2208,3.2178,3.215,3.2122,3.2435,3.2435,3.2641,3.2643,3.2644]},{"header":{"parameterUnit":"m.s-1","parameterCategory":1,"la1":30.2991,"la2":30.254,"lo1":-89.0895,"lo2":-89.0444,"dy":0.0017,"dx":0.0017,"nx":28,"ny":28,"refTime":"2025-07-02T21:00:00:Z","depth":0,"parameterNumber":3,"parameterNumberName":"V-component_of_WINDS"},"data":[0,0,0,0,0,0,0,0,0,0,0,0,0,0,0,0,0,0,0,0,0,0,0,0,0,0,0,0,0,0,0,0,0,0,0,0,0,0,0,0,0,0,0,0,0,0,0,0,0,0,0,0,0,0,0,0,0,0,0.2547,0.2549,0,0.2686,0.2687,0.2689,0.2677,0.2675,0.2672,0.267,0.2808,0.2813,0.2819,0,0,0,0,0,0,0,0,0,0,0,0,0,0.2267,0.2272,0.2547,0.2549,0.255,0.2685,0.2687,0.2689,0.2677,0.2674,0.2672,0.267,0.2806,0.2812,0.2819,0,0,0,0,0,0,0,0,0,0,0,0,0,0.2395,0.2274,0.2547,0.2561,0.2563,0.2685,0.2687,0.269,0.2678,0.2674,0.2671,0.2668,0.2804,0.2812,0.282,0.2935,0,0,0.2846,0.2849,0,0,0,0,0,0,0,0,0.2388,0.2405,0.2557,0.256,0.2563,0.2661,0.2639,0.2772,0.2678,0.2634,0.267,0.2667,0.2761,0.2773,0.2805,0.2941,0.2947,0.2846,0.2851,0.2855,0.2857,0,0,0,0,0,0,0,0.2379,0.2399,0.2602,0.2559,0.2563,0.2558,0.2573,0.2664,0.2713,0.2638,0.2637,0.2654,0.2762,0.2797,0.2808,0.2949,0.2846,0.2854,0.2859,0.2862,0.3184,0.3187,0,0,0,0,0,0,0.2367,0.2392,0.2597,0.2606,0.2466,0.2566,0.2583,0.2632,0.2712,0.2722,0.2657,0.2653,0.2784,0.2799,0.2813,0.2952,0.2855,0.2863,0.2868,0.3181,0.3185,0.3189,0,0,0,0,0,0,0.2362,0.2386,0.2592,0.2499,0.2525,0.2574,0.263,0.2637,0.2672,0.2727,0.2735,0.2684,0.2783,0.2801,0.2905,0.2957,0.2867,0.2874,0.3177,0.3182,0.3187,0.3232,0,0,0,0,0,0,0.2354,0.2384,0.2429,0.25,0.253,0.2683,0.2634,0.2642,0.2687,0.2684,0.2755,0.2763,0.2782,0.2892,0.2913,0.2967,0.2881,0.3172,0.3179,0.3185,0.3226,0.3238,0.3248,0,0,0,0,0,0.2344,0.2436,0.2432,0.2457,0.2588,0.2686,0.2703,0.2723,0.2692,0.2737,0.2771,0.2761,0.2948,0.2903,0.2926,0.2983,0.3169,0.3177,0.3185,0.3221,0.3235,0.3248,0,0,0,0,0,0,0.2369,0.2445,0.2442,0.256,0.2617,0.2684,0.2742,0.2738,0.2804,0.2798,0.2819,0.2835,0.2939,0.2971,0.292,0.3098,0.3054,0.3067,0.3073,0.3088,0.3099,0.3089,0.2888,0,0,0,0,0,0.2389,0.2463,0.2525,0.2623,0.2652,0.2692,0.2735,0.2746,0.2805,0.2829,0.2871,0.2927,0.2998,0.3044,0.3113,0.323,0.3244,0.328,0.3291,0.33,0.3311,0.3374,0.3391,0.3215,0.3215,0.3214,0,0,0.2429,0.248,0.2526,0.263,0.2675,0.275,0.2712,0.2793,0.2849,0.284,0.2941,0.2973,0.3037,0.3148,0.3198,0.3178,0.3363,0.3311,0.3317,0.3324,0.3384,0.3401,0.3415,0.322,0.3219,0.3218,0,0,0.2542,0.2589,0.2675,0.2721,0.2791,0.2816,0.2837,0.2904,0.2926,0.3028,0.3022,0.3087,0.321,0.3255,0.3294,0.3423,0.3415,0.3444,0.3503,0.3564,0.3577,0.359,0.3635,0.3651,0.3455,0.3455,0.3455,0,0.2584,0.2699,0.272,0.2802,0.2847,0.2844,0.2931,0.2973,0.3061,0.3091,0.3067,0.322,0.3263,0.3383,0.3414,0.3446,0.3469,0.3436,0.3574,0.3587,0.3598,0.3641,0.3658,0.3458,0.3458,0.3457,0.3457,0,0.2746,0.2825,0.2886,0.2972,0.3024,0.3108,0.314,0.319,0.3195,0.3223,0.3325,0.3376,0.3454,0.3483,0.349,0.3604,0.3589,0.357,0.3526,0.3618,0.3659,0.3675,0.3462,0.3461,0.346,0.346,0,0,0.288,0.2976,0.2998,0.3036,0.3112,0.3172,0.3255,0.3333,0.3374,0.3434,0.3503,0.3606,0.3588,0.3632,0.3643,0.3697,0.3794,0.367,0.3672,0.3691,0.3922,0.3936,0.3955,0.3789,0.3792,0.3794,0.3916,0,0.3,0.3149,0.3169,0.33,0.3372,0.337,0.3441,0.3494,0.3522,0.3586,0.3615,0.3688,0.3659,0.3685,0.3738,0.3771,0.384,0.3762,0.3851,0.3854,0.3836,0.3976,0.3992,0.4105,0.3932,0.3935,0.3937,0,0.3161,0.3226,0.3364,0.3428,0.346,0.3524,0.3596,0.3658,0.3717,0.3733,0.3782,0.3786,0.3869,0.3822,0.3936,0.3882,0.392,0.3941,0.3946,0.3955,0.3901,0.3989,0.4141,0.4158,0.3962,0.396,0.3958,0,0.3244,0.3366,0.3464,0.3497,0.3575,0.362,0.3654,0.371,0.3755,0.3817,0.3846,0.3917,0.3956,0.4009,0.4031,0.3995,0.4144,0.4098,0.4158,0.4157,0.4189,0.4187,0.435,0.4214,0.4214,0.4213,0.4213,0,0.3376,0.346,0.3502,0.3563,0.3657,0.3679,0.377,0.3802,0.3852,0.3917,0.3918,0.3978,0.4004,0.4068,0.4085,0.4176,0.4194,0.4208,0.4211,0.4208,0.4206,0.4232,0.4225,0.4218,0.4217,0.4216,0.4215,0,0.3485,0.3517,0.3623,0.3688,0.3706,0.3772,0.3827,0.3884,0.391,0.3993,0.4013,0.4054,0.4129,0.4157,0.4248,0.4259,0.4364,0.4362,0.4345,0.4346,0.4404,0.4398,0.4589,0.4615,0.4462,0.4464,0.4465,0,0.3567,0.3632,0.3704,0.3748,0.3784,0.3855,0.3902,0.3925,0.3972,0.4044,0.4092,0.4167,0.4229,0.4348,0.4385,0.4454,0.4453,0.4515,0.4463,0.4457,0.4453,0.4449,0.4454,0.4524,0.4526,0.4527,0.4528,0,0.3709,0.3721,0.3789,0.3862,0.3917,0.3975,0.4031,0.4067,0.4098,0.4151,0.4229,0.4276,0.4369,0.4443,0.4514,0.4547,0.4542,0.4544,0.4562,0.4559,0.4546,0.4553,0.4371,0.454,0.4539,0.4538,0.4537,0.4537,0.3807,0.3864,0.3923,0.3998,0.4043,0.4095,0.4152,0.4185,0.4251,0.433,0.4339,0.4422,0.4477,0.4572,0.4608,0.4672,0.4655,0.468,0.4686,0.4692,0.4696,0.4536,0.4685,0.4684,0.4684,0.4684,0.4684,0,0.3949,0.3986,0.4055,0.4134,0.4192,0.4184,0.4245,0.4294,0.4367,0.442,0.4481,0.4569,0.464,0.4682,0.4753,0.4796,0.4796,0.4814,0.4811,0.4818,0.4708,0.4685,0.4813,0.4813,0.4813,0.4813,0.4813,0.4813,0.4029,0.4125,0.4144,0.4262,0.4299,0.4382,0.4417,0.4464,0.4506,0.4606,0.4665,0.4693,0.474,0.4815,0.4879,0.4889,0.4915,0.4935,0.4943,0.4839,0.4826,0.4813,0.4792,0.494,0.4941,0.5048,0.5049,0.505]}]]